Weather History for Torrington, WY

Change the Weather History Date:

Sunday, June 16, 2013

  Actual Average Record
Temperature  
Mean Temperature 73 °F 66 °F  
Max Temperature 90 °F 82 °F 98 °F (2007)
Min Temperature 55 °F 51 °F 41 °F (2001)
Degree Days  
Heating Degree Days 0 2  
Month to date heating degree days 32 59  
Since 1 June heating degree days 32 59  
Since 1 July heating degree days 6512 6570  
Cooling Degree Days 8 4  
Month to date cooling degree days 59 41  
Year to date cooling degree days 98 59  
Since 1 June cooling degree days 59 41  
Growing Degree Days 22 (Base 50)    
Moisture  
Dew Point 50 °F    
Average Humidity 52    
Maximum Humidity 93    
Minimum Humidity 11    
Precipitation  
Precipitation 0.00 in 0.09 in 0.74 in (2011)
Month to date precipitation 0.14 1.63  
Year to date precipitation 3.90 7.11  
Sea Level Pressure  
Sea Level Pressure 29.90 in    
Wind  
Wind Speed 11 mph (ENE)    
Max Wind Speed 28 mph    
Max Gust Speed 33 mph    
Visibility 10 miles    
Events      
T = Trace of Precipitation, MM = Missing Value Source: NWS Daily Summary

Daily Weather History Graph

Daily Weather History Graph

Search for Another Location

Airport:

Trip Planner

Search our weather history database for the weather conditions in past years. The results will help you decide how hot, cold, wet, or windy it might be!

Date:

Astronomy

Jun. 16, 2013 Rise Set
Actual Time 5:20 AM MDT 8:34 PM MDT
Civil Twilight 4:45 AM MDT 9:09 PM MDT
Nautical Twilight 4:01 AM MDT 9:53 PM MDT
Astronomical Twilight 3:07 AM MDT 10:47 PM MDT
Moon 1:06 PM MDT (6/16) 12:33 AM MDT (6/16)
Length of Visible Light 16h 23m
Length of Day
15h 14m
Waxing Crescent, 50% of the Moon is Illuminated
Jun 16
Waxing Crescent
Jun 23
Full
Jun 29
Last Quarter
Jul 8
New
Jul 15
First Quarter

Hourly Weather History & Observations

Time (MDT) Temp. Heat Index Dew Point Humidity Pressure Visibility Wind Dir Wind Speed Gust Speed Precip Events Conditions
12:53 AM 59.0 °F - 53.1 °F 81% 29.93 in 10.0 mi ENE 3.5 mph - N/A   Clear
1:53 AM 57.9 °F - 53.1 °F 84% 29.92 in 10.0 mi East 8.1 mph - N/A   Clear
2:53 AM 57.0 °F - 54.0 °F 89% 29.93 in 10.0 mi ESE 9.2 mph - N/A   Clear
3:53 AM 57.0 °F - 54.0 °F 89% 29.92 in 10.0 mi East 9.2 mph - N/A   Clear
4:53 AM 55.9 °F - 54.0 °F 93% 29.90 in 10.0 mi ESE 11.5 mph - N/A   Clear
5:53 AM 55.9 °F - 54.0 °F 93% 29.91 in 8.0 mi East 8.1 mph - N/A   Clear
6:53 AM 60.1 °F - 55.9 °F 86% 29.92 in 8.0 mi NE 5.8 mph - N/A   Clear
7:53 AM 64.9 °F - 57.9 °F 78% 29.91 in 10.0 mi SE 5.8 mph - N/A   Clear
8:53 AM 71.1 °F - 55.9 °F 59% 29.90 in 10.0 mi South 6.9 mph - N/A   Clear
9:53 AM 73.9 °F - 55.0 °F 52% 29.90 in 10.0 mi NW 5.8 mph - N/A   Clear
10:53 AM 77.0 °F - 55.0 °F 47% 29.89 in 10.0 mi NW 10.4 mph 16.1 mph N/A   Clear
11:53 AM 80.1 °F 79.9 °F 53.1 °F 39% 29.89 in 10.0 mi NNW 5.8 mph - N/A   Clear
12:53 PM 86.0 °F - 43.0 °F 22% 29.87 in 10.0 mi Calm Calm - N/A   Clear
1:53 PM 89.1 °F - 35.1 °F 15% 29.85 in 10.0 mi NNW 13.8 mph 17.3 mph N/A   Clear
2:53 PM 88.0 °F - 33.1 °F 14% 29.84 in 10.0 mi NNW 12.7 mph 21.9 mph N/A   Clear
3:53 PM 87.1 °F - 27.0 °F 11% 29.84 in 10.0 mi NW 15.0 mph 19.6 mph N/A   Clear
4:53 PM 89.1 °F - 28.0 °F 11% 29.83 in 10.0 mi North 11.5 mph 21.9 mph N/A   Clear
5:53 PM 84.9 °F 83.3 °F 54.0 °F 34% 29.84 in 10.0 mi ENE 23.0 mph 33.4 mph N/A   Clear
6:00 PM 84.2 °F - 51.8 °F 33% 29.97 in 10.0 mi ENE 23.0 mph 32.2 mph N/A   Clear
6:53 PM 80.1 °F - 52.0 °F 38% 29.86 in 10.0 mi ENE 21.9 mph - N/A   Clear
7:53 PM 75.0 °F - 51.1 °F 43% 29.89 in 10.0 mi East 17.3 mph 26.5 mph N/A   Clear
8:53 PM 72.0 °F - 54.0 °F 53% 29.93 in 10.0 mi SSE 18.4 mph - N/A   Clear
9:53 PM 69.1 °F - 52.0 °F 54% 29.96 in 10.0 mi East 15.0 mph - N/A   Partly Cloudy
10:53 PM 66.9 °F - 52.0 °F 59% 29.95 in 10.0 mi SE 15.0 mph - N/A   Clear
11:53 PM 63.0 °F - 52.0 °F 67% 29.97 in 10.0 mi ESE 5.8 mph - N/A   Clear